St. Cloud, MN

1:13 PM CDT on July 26, 2017 (GMT -0500)
Saint Cloud Regional

Weather History for KSTC - December, 2013

Change the Weather History Date:

Saturday, December 7, 2013

  Actual Average Record
Temperature  
Mean Temperature -10 °F 19 °F  
Max Temperature -2 °F 27 °F 53 °F (1939)
Min Temperature -17 °F 10 °F -22 °F (1936)
Degree Days  
Heating Degree Days 74 46  
Month to date heating degree days 220 315  
Since 1 July heating degree days 2093 2240  
Cooling Degree Days 0 0  
Month to date cooling degree days 0 0  
Year to date cooling degree days 578 465  
Moisture  
Dew Point -17 °F    
Average Humidity 73    
Maximum Humidity 81    
Minimum Humidity 64    
Precipitation  
Precipitation 0.00 in 0.03 in 0.41 in (1969)
Month to date precipitation 0.85 0.21  
Year to date precipitation 27.92 27.12  
Snow  
Snow 0.00 in 0.30 in 4.30 in (1969)
Month to date snowfall 6.4 2.2  
Since 1 July snowfall 10.0 11.4  
Snow Depth 5.00 in    
Sea Level Pressure  
Sea Level Pressure 30.69 in    
Wind  
Wind Speed 5 mph (SW)    
Max Wind Speed 10 mph    
Max Gust Speed 13 mph    
Visibility 10 miles    
Events      
T = Trace of Precipitation, MM = Missing Value Source: NWS Daily Summary

Daily Weather History Graph

Daily Weather History Graph

Search for Another Location

Airport or City:

Trip Planner

Search our weather history database for the weather conditions in past years. The results will help you decide how hot, cold, wet, or windy it might be!

Date:

Astronomy

Dec. 07, 2013 Rise Set
Actual Time 7:42 AM CST 4:32 PM CST
Civil Twilight 7:08 AM CST 5:06 PM CST
Nautical Twilight 6:31 AM CST 5:43 PM CST
Astronomical Twilight 5:55 AM CST 6:19 PM CST
Moon 11:17 AM CST (12/7) 10:27 PM CST (12/7)
Length of Visible Light 9h 57m
Length of Day
8h 49m
Waxing Crescent, 29% of the Moon is Illuminated
Dec 7
Waxing Crescent
Dec 9
First Quarter
Dec 17
Full
Dec 25
Last Quarter
Jan 1
New

Hourly Weather History & Observations

Time (CST) Temp. Windchill Dew Point Humidity Pressure Visibility Wind Dir Wind Speed Gust Speed Precip Events Conditions
12:53 AM -11.0 °F -29.9 °F -17.0 °F 75% 30.59 in 10.0 mi WNW 10.4 mph - N/A   Clear
1:53 AM -11.0 °F -26.2 °F -17.0 °F 75% 30.60 in 10.0 mi West 6.9 mph - N/A   Clear
2:53 AM -11.9 °F -23.8 °F -18.0 °F 74% 30.74 in 10.0 mi WNW 4.6 mph - N/A   Clear
3:53 AM -11.9 °F -25.7 °F -18.0 °F 74% 30.62 in 10.0 mi WSW 5.8 mph - N/A   Clear
4:53 AM -13.0 °F -25.1 °F -18.9 °F 75% 30.75 in 10.0 mi West 4.6 mph - N/A   Clear
5:53 AM -13.0 °F -28.6 °F -18.9 °F 75% 30.75 in 10.0 mi West 6.9 mph - N/A   Clear
6:53 AM -15.0 °F -31.0 °F -20.0 °F 78% 30.76 in 10.0 mi SW 6.9 mph - N/A   Clear
7:53 AM -17.0 °F -27.2 °F -20.0 °F 86% 30.78 in 10.0 mi SW 3.5 mph - N/A   Clear
8:53 AM -15.0 °F -25.0 °F -18.9 °F 82% 30.78 in 10.0 mi SSW 3.5 mph - N/A   Clear
9:53 AM -9.0 °F -23.8 °F -16.1 °F 71% 30.78 in 10.0 mi SW 6.9 mph - N/A   Clear
10:53 AM -6.0 °F -20.1 °F -15.0 °F 65% 30.78 in 10.0 mi WSW 6.9 mph - N/A   Clear
11:53 AM - - - N/A% 30.63 in - North - - 0.00 in   Unknown
12:53 PM - - - N/A% 30.62 in 10.0 mi SW 9.2 mph - 0.00 in   Clear
1:53 PM - - - N/A% 30.60 in - North - - N/A   Clear
3:53 PM -2.0 °F -16.6 °F -11.0 °F 66% - 10.0 mi SSW 8.1 mph - N/A   Unknown
4:53 PM -2.9 °F -16.5 °F -11.9 °F 65% 30.70 in 10.0 mi SSW 6.9 mph - N/A   Scattered Clouds
5:53 PM -8.0 °F -19.2 °F -14.1 °F 75% 30.71 in 10.0 mi South 4.6 mph - N/A   Clear
6:53 PM -9.0 °F -18.2 °F -14.1 °F 79% 30.69 in 10.0 mi SSW 3.5 mph - N/A   Clear
7:53 PM -9.9 °F - -15.0 °F 78% 30.69 in 10.0 mi Calm Calm - N/A   Clear
8:53 PM -15.0 °F -25.0 °F -18.9 °F 82% 30.69 in 10.0 mi SSE 3.5 mph - N/A   Clear
9:53 PM -13.0 °F - -18.0 °F 78% 30.67 in 9.0 mi Calm Calm - N/A   Clear
10:53 PM -15.0 °F - -20.0 °F 78% 30.66 in 10.0 mi Calm Calm - N/A   Clear
11:53 PM -16.1 °F - -20.0 °F 82% 30.52 in 10.0 mi Calm Calm - N/A   Clear